Location: ????????
(56.0167°N, 38.0333°E)
Time: 09:14:25
(UTC+00:00)

Cosmos 1908 - Pass Details

Date: 19 May 2025
Orbit: 405 x 414 km, 82.5° (Epoch: 12 June)

Event Time Altitude Azimuth Distance (km) Brightness Sun altitude
Rises 19:53:59 0° 353° (N) 2,386 8.3 -11.7°
Reaches altitude 10° 19:56:08 10° 2° (N) 1,514 6.7 -11.8°
Maximum altitude 19:59:12 35° 71° (ENE) 694 3.8 -11.9°
Enters shadow 20:01:14 17° 130° (SE) 1,129 4.4 -12.0°
